EW4266 Weather Reports


Display with metric or nautical units.
time (UTC)temp
F
wind
direction
speed
MPH
gust
MPH
rain 1hr
in
rain 24hr
in
rain mn
in
humidity
%
barometer
mb
20260507172217 54 310 5.0 14.0 0.00 0.26 0.00 44 1007.5
20260507172121 54 292 5.0 14.0 0.00 0.26 0.00 43 1007.5
20260507172044 54 332 4.0 14.0 0.00 0.26 0.00 40 1007.5
20260507171913 54 205 5.0 14.0 0.00 0.26 0.00 41 1007.4
20260507171828 54 234 6.0 14.0 0.00 0.26 0.00 42 1007.5
20260507171641 54 321 7.0 14.0 0.00 0.26 0.00 40 1007.5
20260507171605 55 253 6.0 14.0 0.00 0.26 0.00 42 1007.5
20260507171439 54 235 5.0 13.0 0.00 0.26 0.00 42 1007.5
20260507171324 54 292 5.0 18.0 0.00 0.26 0.00 41 1007.6
20260507171245 54 242 5.0 18.0 0.00 0.26 0.00 41 1007.6
20260507171117 54 248 3.0 18.0 0.00 0.26 0.00 42 1007.5
20260507171031 54 171 3.0 18.0 0.00 0.26 0.00 44 1007.6
20260507170841 54 244 6.0 18.0 0.00 0.26 0.00 41 1007.6
20260507170756 54 215 7.0 18.0 0.00 0.26 0.00 41 1007.6
20260507170605 54 269 12.0 18.0 0.00 0.26 0.00 41 1007.6
20260507170531 54 200 11.0 19.0 0.00 0.26 0.00 40 1007.6
20260507170333 54 263 8.0 18.0 0.00 0.26 0.00 43 1007.7
20260507170255 54 188 6.0 18.0 0.00 0.26 0.00 42 1007.7
20260507170138 54 226 5.0 18.0 0.00 0.26 0.00 43 1007.7
20260507170059 54 242 5.0 18.0 0.00 0.26 0.00 39 1007.7
20260507170013 54 215 8.0 18.0 0.00 0.26 0.00 40 1007.7
20260507165800 54 209 6.0 18.0 0.00 0.34 0.00 44 1007.7
20260507165722 54 189 5.0 12.0 0.00 0.34 0.00 44 1007.7
20260507165552 54 204 4.0 12.0 0.00 0.34 0.00 45 1007.6
20260507165426 54 136 4.0 11.0 0.00 0.34 0.00 42 1007.6
20260507165353 54 213 4.0 11.0 0.00 0.34 0.00 42 1007.6
20260507165245 54 214 5.0 10.0 0.00 0.34 0.00 43 1007.8
20260507165056 54 226 5.0 10.0 0.00 0.34 0.00 45 1007.7
20260507164928 54 179 6.0 15.0 0.00 0.34 0.00 41 1007.8
20260507164831 54 206 5.0 15.0 0.00 0.34 0.00 41 1007.9
20260507164737 54 148 4.0 15.0 0.00 0.34 0.00 43 1007.8
20260507164631 54 207 5.0 15.0 0.00 0.34 0.00 43 1007.9
20260507164551 54 268 6.0 15.0 0.00 0.34 0.00 44 1008.0
20260507164454 54 186 4.0 15.0 0.00 0.34 0.00 44 1008.0
20260507164340 53 178 5.0 15.0 0.00 0.34 0.00 44 1007.9
20260507164244 53 213 8.0 15.0 0.00 0.34 0.00 43 1007.9
20260507164137 53 314 8.0 15.0 0.00 0.34 0.00 44 1008.0
20260507164101 53 327 6.0 15.0 0.00 0.34 0.00 44 1008.0
20260507164006 53 248 4.0 14.0 0.00 0.34 0.00 46 1007.9
20260507163929 53 299 3.0 14.0 0.00 0.34 0.00 46 1007.9
20260507163732 53 348 2.0 14.0 0.00 0.34 0.00 44 1008.0
20260507163633 53 312 3.0 14.0 0.00 0.34 0.00 46 1008.0
20260507163540 53 311 5.0 14.0 0.00 0.34 0.00 43 1008.0
20260507163444 53 302 6.0 14.0 0.00 0.34 0.00 44 1008.0
20260507163358 53 319 5.0 13.0 0.00 0.34 0.00 43 1008.2
20260507163207 53 293 3.0 16.0 0.00 0.34 0.00 45 1008.1
20260507163129 52 254 3.0 16.0 0.00 0.34 0.00 45 1008.1
20260507162932 52 302 7.0 16.0 0.00 0.34 0.00 42 1008.2
20260507162854 52 297 7.0 16.0 0.00 0.34 0.00 41 1008.2
20260507162737 52 288 8.0 16.0 0.00 0.34 0.00 41 1008.1
20260507162659 52 331 7.0 16.0 0.00 0.34 0.00 42 1008.1
20260507162613 53 331 7.0 16.0 0.00 0.34 0.00 41 1008.2
20260507162438 53 287 10.0 16.0 0.00 0.34 0.00 44 1008.3
20260507162402 53 311 9.0 15.0 0.00 0.34 0.00 44 1008.3
20260507162317 53 290 9.0 15.0 0.00 0.34 0.00 44 1008.4
20260507162128 53 168 7.0 14.0 0.00 0.34 0.00 43 1008.2
20260507162023 53 241 10.0 14.0 0.00 0.34 0.00 41 1008.2
20260507161946 53 164 8.0 14.0 0.00 0.34 0.00 41 1008.2
20260507161830 53 216 5.0 14.0 0.00 0.34 0.00 45 1008.3
20260507161740 52 215 5.0 14.0 0.00 0.34 0.00 45 1008.3
20260507161622 52 182 4.0 14.0 0.00 0.34 0.00 46 1008.3
20260507161547 52 232 5.0 14.0 0.00 0.34 0.00 44 1008.3
20260507161417 52 307 5.0 14.0 0.00 0.34 0.00 44 1008.4
20260507161311 52 264 5.0 16.0 0.00 0.34 0.00 44 1008.4
20260507161130 52 327 8.0 16.0 0.00 0.34 0.00 43 1008.4
20260507161045 52 341 7.0 19.0 0.00 0.34 0.00 45 1008.4
20260507160916 52 229 6.0 19.0 0.00 0.34 0.00 41 1008.3
20260507160837 52 284 7.0 19.0 0.00 0.34 0.00 41 1008.4
20260507160640 52 263 6.0 19.0 0.00 0.34 0.00 43 1008.4
20260507160544 52 335 8.0 19.0 0.00 0.34 0.00 43 1008.4
20260507160429 52 250 7.0 19.0 0.00 0.34 0.00 45 1008.5
20260507160353 52 329 8.0 19.0 0.00 0.34 0.00 43 1008.5
20260507160308 52 289 9.0 19.0 0.00 0.34 0.00 43 1008.5
20260507160118 52 325 6.0 17.0 0.00 0.34 0.00 44 1008.5
20260507160040 52 199 7.0 17.0 0.00 0.34 0.00 44 1008.5
20260507155843 52 300 8.0 17.0 0.00 0.45 0.00 42 1008.5
20260507155804 52 286 9.0 17.0 0.00 0.45 0.00 43 1008.6
20260507155707 52 332 6.0 17.0 0.00 0.45 0.00 46 1008.7
20260507155629 53 298 4.0 14.0 0.00 0.45 0.00 45 1008.7
20260507155434 52 240 2.0 11.0 0.00 0.45 0.00 45 1008.7
20260507155340 52 163 1.0 16.0 0.00 0.45 0.00 46 1008.8
20260507155224 52 225 3.0 16.0 0.00 0.45 0.00 49 1008.7
20260507155147 52 292 3.0 16.0 0.00 0.45 0.00 47 1008.8
20260507154935 52 244 6.0 16.0 0.00 0.45 0.00 43 1008.9
20260507154847 52 219 6.0 16.0 0.00 0.45 0.00 46 1008.9
20260507154718 52 196 4.0 16.0 0.00 0.45 0.00 44 1008.9
20260507154619 52 51 7.0 16.0 0.00 0.45 0.00 44 1008.9
20260507154523 52 162 9.0 16.0 0.00 0.45 0.00 43 1008.8
20260507154445 52 190 7.0 12.0 0.00 0.45 0.00 45 1008.9
20260507154235 52 220 6.0 14.0 0.00 0.45 0.00 46 1008.9
20260507154148 52 293 6.0 14.0 0.00 0.45 0.00 46 1008.9
20260507154054 52 254 7.0 14.0 0.00 0.45 0.00 48 1008.9
20260507154016 52 155 6.0 14.0 0.00 0.45 0.00 46 1008.8
20260507153931 52 283 6.0 14.0 0.00 0.45 0.00 46 1008.9
20260507153749 51 307 5.0 12.0 0.00 0.45 0.00 45 1009.0
20260507153650 51 306 4.0 12.0 0.00 0.45 0.00 44 1009.0
20260507153534 52 284 5.0 12.0 0.00 0.45 0.00 45 1009.0
20260507153456 52 279 5.0 12.0 0.00 0.45 0.00 44 1009.0
20260507153237 52 313 6.0 12.0 0.00 0.45 0.00 45 1009.0
20260507153159 52 189 5.0 11.0 0.00 0.45 0.00 45 1009.0
20260507153043 52 286 5.0 11.0 0.00 0.45 0.00 47 1008.9
20260507152950 52 281 5.0 11.0 0.00 0.45 0.00 49 1008.9
20260507152913 52 308 4.0 10.0 0.00 0.45 0.00 47 1008.9
20260507152815 52 341 5.0 9.0 0.00 0.45 0.00 45 1008.9
20260507152737 52 327 5.0 9.0 0.00 0.45 0.00 45 1008.9
20260507152618 52 333 4.0 12.0 0.00 0.45 0.00 47 1009.0
20260507152534 52 325 5.0 12.0 0.00 0.45 0.00 48 1009.0
20260507152404 51 174 4.0 17.0 0.00 0.45 0.00 49 1009.0
20260507152327 51 254 3.0 17.0 0.00 0.45 0.00 49 1008.9
20260507152129 51 284 2.0 17.0 0.00 0.45 0.00 50 1008.8
20260507152051 51 313 2.0 17.0 0.00 0.45 0.00 50 1008.8
20260507151955 51 61 4.0 17.0 0.00 0.45 0.00 49 1008.9
20260507151855 51 328 5.0 17.0 0.00 0.45 0.00 47 1008.9
20260507151743 51 355 6.0 17.0 0.00 0.45 0.00 47 1008.9
20260507151655 51 264 9.0 17.0 0.00 0.45 0.00 47 1008.8
20260507151555 51 225 8.0 15.0 0.00 0.45 0.00 46 1008.9
20260507151458 51 306 6.0 15.0 0.00 0.45 0.00 48 1008.9
20260507151400 51 338 5.0 15.0 0.00 0.45 0.00 48 1008.9
20260507151302 51 244 5.0 15.0 0.00 0.45 0.00 50 1008.9
20260507151225 51 299 4.0 15.0 0.00 0.45 0.00 50 1008.9
20260507151027 51 296 7.0 15.0 0.00 0.45 0.00 48 1008.9
20260507150949 51 194 8.0 15.0 0.00 0.45 0.00 48 1008.9
20260507150854 51 228 9.0 15.0 0.00 0.45 0.00 47 1008.8
20260507150816 51 178 5.0 12.0 0.00 0.45 0.00 49 1008.9
20260507150651 50 336 5.0 12.0 0.00 0.45 0.00 48 1008.9
20260507150543 50 235 6.0 12.0 0.00 0.45 0.00 49 1009.0
20260507150352 50 281 4.0 12.0 0.00 0.45 0.00 50 1008.8
20260507150251 50 207 4.0 12.0 0.00 0.45 0.00 50 1008.8
20260507150122 50 189 8.0 19.0 0.00 0.45 0.00 47 1008.9
20260507150036 50 206 8.0 19.0 0.00 0.45 0.00 48 1008.9
20260507145906 50 171 7.0 19.0 0.00 0.53 0.00 48 1008.9
20260507145829 50 193 7.0 19.0 0.00 0.53 0.00 48 1008.9
20260507145631 50 167 7.0 19.0 0.00 0.53 0.00 47 1008.9
20260507145553 50 238 7.0 19.0 0.00 0.53 0.00 47 1008.9
20260507145456 50 226 9.0 19.0 0.00 0.53 0.00 47 1008.9
20260507145341 50 188 10.0 19.0 0.00 0.53 0.00 47 1008.9
20260507145223 50 214 7.0 13.0 0.00 0.53 0.00 47 1008.9
20260507145147 50 225 6.0 13.0 0.00 0.53 0.00 47 1008.9
20260507145101 50 180 5.0 13.0 0.00 0.53 0.00 47 1008.9
20260507144930 50 235 6.0 13.0 0.00 0.53 0.00 49 1009.1
20260507144832 50 277 7.0 13.0 0.00 0.53 0.00 49 1009.0
20260507144636 50 213 5.0 15.0 0.00 0.53 0.00 50 1008.9
20260507144538 50 238 5.0 15.0 0.00 0.53 0.00 50 1008.9
20260507144440 50 300 7.0 15.0 0.00 0.53 0.00 50 1008.8
20260507144401 50 215 8.0 15.0 0.00 0.53 0.00 50 1008.8
20260507144236 50 333 6.0 10.0 0.00 0.53 0.00 48 1009.0
20260507144130 50 290 5.0 10.0 0.00 0.53 0.00 49 1008.9
20260507143940 50 220 3.0 11.0 0.00 0.53 0.00 49 1009.0
20260507143834 49 309 4.0 11.0 0.00 0.53 0.00 49 1009.0
20260507143644 49 293 6.0 14.0 0.00 0.53 0.00 49 1009.0
20260507143559 49 303 5.0 14.0 0.00 0.53 0.00 50 1009.0
20260507143429 49 271 4.0 14.0 0.00 0.53 0.00 48 1009.0
20260507143330 49 314 5.0 14.0 0.00 0.53 0.00 48 1009.0
20260507143201 49 321 5.0 14.0 0.00 0.53 0.00 49 1008.9
20260507143033 49 261 5.0 14.0 0.00 0.53 0.00 49 1008.9
20260507143001 49 197 4.0 14.0 0.00 0.53 0.00 48 1008.9
20260507142825 49 313 3.0 9.0 0.00 0.53 0.00 48 1009.0
20260507142739 49 227 4.0 9.0 0.00 0.53 0.00 48 1009.0
20260507142608 49 232 4.0 9.0 0.00 0.53 0.00 49 1009.0
20260507142530 49 283 4.0 9.0 0.00 0.53 0.00 48 1009.0
20260507142333 49 317 3.0 9.0 0.00 0.53 0.00 49 1009.1
20260507142257 49 266 4.0 9.0 0.00 0.53 0.00 48 1009.1
20260507142201 49 263 3.0 9.0 0.00 0.53 0.00 48 1009.1
20260507142123 49 234 3.0 9.0 0.00 0.53 0.00 48 1009.2
20260507141939 49 253 5.0 9.0 0.00 0.53 0.00 48 1009.1
20260507141833 49 287 4.0 9.0 0.00 0.53 0.00 48 1009.1
20260507141716 49 360 3.0 8.0 0.00 0.53 0.00 47 1009.1
20260507141649 49 288 4.0 9.0 0.00 0.53 0.00 47 1009.1
20260507141612 49 315 5.0 9.0 0.00 0.53 0.00 48 1009.1
20260507141515 49 329 3.0 10.0 0.00 0.53 0.00 48 1009.0
20260507141416 49 325 3.0 10.0 0.00 0.53 0.00 48 1009.1
20260507141339 49 271 4.0 10.0 0.00 0.53 0.00 47 1009.1
20260507141219 49 322 4.0 10.0 0.00 0.53 0.00 47 1009.1
20260507141141 49 302 4.0 10.0 0.00 0.53 0.00 47 1009.1
20260507141011 49 238 4.0 10.0 0.00 0.53 0.00 47 1009.1
20260507140916 49 237 4.0 10.0 0.00 0.53 0.00 47 1009.0
20260507140740 48 263 5.0 10.0 0.00 0.53 0.00 47 1009.0
20260507140640 48 231 3.0 12.0 0.00 0.53 0.00 47 1009.1
20260507140522 48 310 2.0 11.0 0.00 0.53 0.00 47 1009.1
20260507140446 48 264 2.0 11.0 0.00 0.53 0.00 47 1009.1
20260507140341 48 260 3.0 11.0 0.00 0.53 0.00 48 1009.1
20260507140223 48 240 4.0 11.0 0.00 0.53 0.00 47 1009.2
20260507140146 48 242 3.0 11.0 0.00 0.53 0.00 47 1009.2
20260507140108 48 231 4.0 11.0 0.00 0.53 0.00 47 1009.1
20260507140037 48 265 4.0 11.0 0.00 0.53 0.00 47 1009.1
20260507135918 48 301 5.0 11.0 0.00 0.59 0.00 47 1009.1
20260507135840 48 269 6.0 11.0 0.00 0.59 0.00 47 1009.1
20260507135701 48 287 5.0 11.0 0.00 0.59 0.00 46 1009.1
20260507135636 48 304 5.0 10.0 0.00 0.59 0.00 46 1009.1
20260507135506 48 342 4.0 10.0 0.00 0.59 0.00 45 1009.1
20260507135428 48 319 3.0 9.0 0.00 0.59 0.00 45 1009.1
20260507135229 48 252 3.0 10.0 0.00 0.59 0.00 44 1009.1
20260507135153 48 262 3.0 10.0 0.00 0.59 0.00 40 1009.1
20260507135036 48 304 3.0 10.0 0.00 0.59 0.00 44 1009.1
20260507135000 48 223 4.0 10.0 0.00 0.59 0.00 44 1009.1
20260507134918 48 200 4.0 10.0 0.00 0.59 0.00 44 1009.2
20260507134727 48 275 5.0 10.0 0.00 0.59 0.00 43 1009.2
20260507134642 48 290 6.0 10.0 0.00 0.59 0.00 43 1009.2
20260507134545 48 252 6.0 10.0 0.00 0.59 0.00 44 1009.2
20260507134427 48 312 5.0 9.0 0.00 0.59 0.00 43 1009.2
20260507134351 48 271 5.0 9.0 0.00 0.59 0.00 43 1009.2
20260507134304 48 296 5.0 8.0 0.00 0.59 0.00 42 1009.2
20260507134133 48 285 4.0 6.0 0.00 0.59 0.00 41 1009.1
20260507134035 48 267 3.0 6.0 0.00 0.59 0.00 40 1009.2
20260507133843 48 208 3.0 8.0 0.00 0.59 0.00 40 1009.1
20260507133744 48 205 4.0 8.0 0.00 0.59 0.00 38 1009.1
20260507133627 48 161 3.0 8.0 0.00 0.59 0.00 36 1009.0
20260507133549 48 153 3.0 8.0 0.00 0.59 0.00 36 1009.0
20260507133424 48 279 4.0 8.0 0.00 0.59 0.00 39 1009.1
20260507133327 48 218 2.0 8.0 0.00 0.59 0.00 39 1009.1
20260507133249 48 292 2.0 8.0 0.00 0.59 0.00 39 1009.1
20260507133211 47 291 2.0 8.0 0.00 0.59 0.00 41 1009.0
20260507133117 47 101 4.0 8.0 0.00 0.59 0.00 40 1009.1
20260507133043 47 87 5.0 8.0 0.00 0.59 0.00 40 1009.1
20260507132912 48 158 2.0 8.0 0.00 0.59 0.00 36 1009.1
20260507132826 48 223 2.0 8.0 0.00 0.59 0.00 37 1009.1
20260507132636 48 299 3.0 8.0 0.00 0.59 0.00 35 1009.1
20260507132554 48 333 2.0 8.0 0.00 0.59 0.00 28 1009.1
20260507132517 48 294 1.0 7.0 0.00 0.59 0.00 29 1009.0
20260507132346 47 189 3.0 8.0 0.00 0.59 0.00 28 1009.0
20260507132247 47 167 4.0 8.0 0.00 0.59 0.00 27 1009.0
20260507132143 47 183 4.0 7.0 0.00 0.59 0.00 30 1009.0
20260507132105 47 267 4.0 6.0 0.00 0.59 0.00 30 1009.0
20260507132009 47 295 3.0 7.0 0.00 0.59 0.00 28 1009.0
20260507131935 47 324 3.0 7.0 0.00 0.59 0.00 28 1009.1
20260507131754 47 238 4.0 8.0 0.00 0.59 0.00 28 1009.1
20260507131535 47 150 3.0 10.0 0.00 0.59 0.00 28 1009.2
20260507131458 47 241 3.0 10.0 0.00 0.59 0.00 27 1009.2
20260507131404 47 236 4.0 10.0 0.00 0.59 0.00 29 1009.2
20260507131323 47 290 4.0 10.0 0.00 0.59 0.00 25 1009.2
20260507131136 47 313 3.0 10.0 0.00 0.59 0.00 23 1009.1
20260507131031 47 202 3.0 10.0 0.00 0.59 0.00 24 1009.2
20260507130924 47 250 4.0 10.0 0.00 0.59 0.00 24 1009.2
20260507130849 47 212 5.0 10.0 0.00 0.59 0.00 24 1009.2
20260507130721 47 198 4.0 10.0 0.00 0.59 0.00 16 1009.1
20260507130634 47 259 3.0 7.0 0.00 0.59 0.00 11 1009.1
20260507130505 47 277 2.0 7.0 0.00 0.59 0.00 7 1009.0
20260507130427 47 285 1.0 7.0 0.00 0.59 0.00 3 1009.1
20260507130229 47 169 2.0 7.0 0.00 0.59 0.00 7 1009.0
20260507130150 47 268 2.0 7.0 0.00 0.59 0.00 8 1009.0
20260507130034 47 220 4.0 7.0 0.00 0.59 0.00 11 1009.0
20260507125955 47 205 4.0 8.0 0.00 0.69 0.00 9 1009.1
20260507125828 47 225 2.0 8.0 0.00 0.69 0.00 7 1009.0
20260507125755 47 213 3.0 8.0 0.00 0.69 0.00 11 1009.0
20260507125639 46 236 4.0 8.0 0.00 0.69 0.00 11 1009.1
20260507125523 47 283 4.0 8.0 0.00 0.69 0.00 9 1009.1
20260507125444 47 252 4.0 8.0 0.00 0.69 0.00 5 1009.1
20260507125253 47 279 3.0 8.0 0.00 0.69 0.00 1 1009.1
20260507125155 47 234 3.0 8.0 0.00 0.69 0.00 1 1009.1
20260507125119 47 318 2.0 7.0 0.00 0.69 0.00 1 1009.1
20260507124928 46 203 2.0 11.0 0.00 0.69 0.00 1 1009.1
20260507124822 46 223 3.0 11.0 0.00 0.69 0.00 1 1009.1
20260507124748 46 281 2.0 11.0 0.00 0.69 0.00 1 1009.1
20260507124650 46 195 2.0 11.0 0.00 0.69 0.00 1 1009.1
20260507124611 46 236 2.0 11.0 0.00 0.69 0.00 1 1009.1
20260507124545 46 234 3.0 11.0 0.00 0.69 0.00 1 1009.1
20260507124409 46 240 4.0 11.0 0.00 0.69 0.00 1 1009.2
20260507124331 46 244 4.0 11.0 0.00 0.69 0.00 1 1009.2
20260507124211 46 194 4.0 9.0 0.00 0.69 0.00 1 1009.2
20260507124124 46 240 4.0 9.0 0.00 0.69 0.00 1 1009.1
20260507123955 46 304 3.0 9.0 0.00 0.69 0.00 1 1009.1
20260507123856 46 267 2.0 9.0 0.00 0.69 0.00 1 1009.1
20260507123636 46 313 3.0 9.0 0.00 0.69 0.00 1 1009.1
20260507123544 46 279 4.0 11.0 0.00 0.69 0.00 1 1009.1
20260507123426 46 186 3.0 11.0 0.00 0.69 0.00 1 1009.1
20260507123350 46 240 2.0 11.0 0.00 0.69 0.00 1 1009.1
20260507123244 46 248 4.0 11.0 0.00 0.69 0.00 1 1009.1
20260507123204 46 250 4.0 11.0 0.00 0.69 0.00 1 1009.1
20260507123119 46 279 3.0 11.0 0.00 0.69 0.00 1 1009.1
20260507122928 45 304 3.0 11.0 0.00 0.69 0.00 1 1009.2
20260507122824 45 307 5.0 11.0 0.00 0.69 0.00 1 1009.2
20260507122723 45 276 4.0 7.0 0.00 0.69 0.00 1 1009.2
20260507122645 45 192 3.0 8.0 0.00 0.69 0.00 1 1009.2
20260507122455 45 298 2.0 7.0 0.00 0.69 0.00 1 1009.2
20260507122410 45 206 1.0 7.0 0.00 0.69 0.00 1 1009.2
20260507122219 45 219 2.0 7.0 0.00 0.69 0.00 1 1009.2
20260507122142 45 197 2.0 7.0 0.00 0.69 0.00 1 1009.2
20260507122013 45 246 1.0 7.0 0.00 0.69 0.00 1 1009.3
20260507121927 45 246 2.0 7.0 0.00 0.69 0.00 1 1009.3
20260507121739 45 254 3.0 7.0 0.00 0.69 0.00 1 1009.3
20260507121634 44 253 3.0 6.0 0.00 0.69 0.00 1 1009.2
20260507121532 44 210 3.0 5.0 0.00 0.69 0.00 1 1009.1
20260507121432 45 298 2.0 5.0 0.00 0.69 0.00 1 1009.0
20260507121326 44 238 1.0 5.0 0.00 0.69 0.00 1 1009.1
20260507121249 44 288 1.0 5.0 0.00 0.69 0.00 1 1009.1
20260507121204 44 5 1.0 5.0 0.00 0.69 0.00 1 1009.0
20260507121033 44 303 1.0 5.0 0.00 0.69 0.00 1 1009.1
20260507120935 44 296 2.0 5.0 0.00 0.69 0.00 1 1009.1
20260507120735 44 346 1.0 6.0 0.00 0.69 0.00 1 1009.1
20260507120657 44 316 2.0 6.0 0.00 0.69 0.00 1 1009.1
20260507120525 44 302 3.0 6.0 0.00 0.69 0.00 1 1009.1
20260507120449 43 236 4.0 6.0 0.00 0.69 0.00 1 1009.1
20260507120343 43 214 4.0 6.0 0.00 0.69 0.00 1 1009.0
20260507120304 43 178 3.0 6.0 0.00 0.69 0.00 1 1009.0
20260507120218 43 149 3.0 6.0 0.00 0.69 0.00 1 1009.0
20260507120140 43 196 3.0 6.0 0.00 0.69 0.00 1 1009.0
20260507120010 43 198 2.0 5.0 0.00 0.69 0.00 1 1009.1
20260507115924 43 219 3.0 5.0 0.00 0.71 0.00 1 1009.0
20260507115734 43 204 1.0 6.0 0.00 0.71 0.00 1 1009.0
20260507115613 43 50 1.0 6.0 0.00 0.71 0.00 1 1009.0
20260507115528 43 244 2.0 6.0 0.00 0.71 0.00 1 1009.0
20260507115430 43 229 2.0 6.0 0.00 0.71 0.00 1 1009.1
20260507115354 43 234 2.0 6.0 0.00 0.71 0.00 1 1009.1
20260507115256 43 189 3.0 6.0 0.00 0.71 0.00 1 1009.0
20260507115157 44 235 4.0 6.0 0.00 0.71 0.00 1 1008.9
20260507115006 44 204 4.0 6.0 0.00 0.71 0.00 1 1008.9
20260507114921 44 199 3.0 5.0 0.00 0.71 0.00 1 1008.9
20260507114732 44 201 2.0 4.0 0.00 0.71 0.00 1 1008.9
20260507114630 44 217 2.0 3.0 0.00 0.71 0.00 1 1008.8
20260507114554 44 210 2.0 3.0 0.00 0.71 0.00 1 1008.8
20260507114459 44 210 2.0 3.0 0.00 0.71 0.00 1 1008.8
20260507114420 44 210 1.0 3.0 0.00 0.71 0.00 1 1008.7
20260507114249 44 202 0.0 0.0 0.00 0.71 0.00 1 1008.7
20260507114143 44 202 0.0 0.0 0.00 0.71 0.00 1 1008.7
20260507114014 43 202 0.0 0.0 0.00 0.71 0.00 1 1008.6
20260507113936 43 202 0.0 3.0 0.00 0.71 0.00 1 1008.6
20260507113805 43 202 0.0 4.0 0.00 0.71 0.00 1 1008.6
20260507113720 43 202 0.0 4.0 0.00 0.71 0.00 1 1008.6
20260507113529 43 201 0.0 4.0 0.00 0.71 0.00 1 1008.6
20260507113444 43 188 0.0 4.0 0.00 0.71 0.00 1 1008.6
20260507113317 43 171 0.0 4.0 0.00 0.71 0.00 1 1008.5
20260507113239 43 171 1.0 4.0 0.00 0.71 0.00 1 1008.5
20260507113042 43 167 3.0 5.0 0.00 0.71 0.00 1 1008.5
20260507113005 43 175 3.0 5.0 0.00 0.71 0.00 1 1008.4
20260507112904 43 155 2.0 5.0 0.00 0.71 0.00 1 1008.4
20260507112826 43 161 2.0 5.0 0.00 0.71 0.00 1 1008.4
20260507112639 43 153 0.0 3.0 0.00 0.71 0.00 1 1008.5
20260507112532 43 185 0.0 3.0 0.00 0.71 0.00 1 1008.5
20260507112456 43 185 0.0 3.0 0.00 0.71 0.00 1 1008.5
20260507112345 43 185 1.0 3.0 0.00 0.71 0.00 1 1008.5
20260507112307 43 185 1.0 4.0 0.00 0.71 0.00 1 1008.5
20260507112150 43 185 1.0 4.0 0.00 0.71 0.00 1 1008.5
20260507112111 43 185 1.0 4.0 0.00 0.71 0.00 1 1008.5
20260507111921 43 185 2.0 4.0 0.00 0.71 0.00 1 1008.5
20260507111837 43 185 2.0 4.0 0.00 0.71 0.00 1 1008.5
20260507111706 43 150 1.0 4.0 0.00 0.71 0.00 1 1008.5
20260507111628 43 149 2.0 4.0 0.00 0.71 0.00 1 1008.6
20260507111430 43 226 3.0 5.0 0.00 0.71 0.00 1 1008.4
20260507111353 43 181 3.0 5.0 0.00 0.71 0.00 1 1008.4
20260507111237 43 159 3.0 5.0 0.00 0.71 0.00 1 1008.5
20260507111144 43 186 2.0 3.0 0.00 0.71 0.00 1 1008.5
20260507111038 44 178 1.0 2.0 0.00 0.71 0.00 1 1008.6
20260507111001 44 279 0.0 2.0 0.00 0.71 0.00 1 1008.6
20260507110904 43 279 0.0 2.0 0.00 0.71 0.00 1 1008.6
20260507110824 44 279 1.0 2.0 0.00 0.71 0.00 1 1008.6
20260507110654 44 279 1.0 2.0 0.00 0.71 0.00 1 1008.6
20260507110527 44 279 0.0 2.0 0.00 0.71 0.00 1 1008.6
20260507110450 44 279 0.0 2.0 0.00 0.71 0.00 1 1008.6
20260507110354 44 279 0.0 3.0 0.00 0.71 0.00 1 1008.6
20260507110316 44 279 0.0 3.0 0.00 0.71 0.00 1 1008.5
20260507110124 44 279 0.0 3.0 0.00 0.71 0.00 1 1008.6
20260507110027 44 279 0.0 3.0 0.00 0.71 0.00 1 1008.5
20260507105932 44 279 0.0 3.0 0.00 0.72 0.00 1 1008.5
20260507105854 44 279 1.0 3.0 0.00 0.72 0.00 1 1008.5
20260507105816 44 279 1.0 3.0 0.00 0.72 0.00 1 1008.5
20260507105638 44 279 1.0 3.0 0.00 0.72 0.00 1 1008.5
20260507105542 44 279 2.0 3.0 0.00 0.72 0.00 1 1008.5
20260507105425 44 279 1.0 3.0 0.00 0.72 0.00 1 1008.5
20260507105349 44 277 0.0 3.0 0.00 0.72 0.00 1 1008.5
20260507105314 44 273 0.0 4.0 0.00 0.72 0.00 1 1008.5
20260507105116 44 273 2.0 4.0 0.00 0.72 0.00 1 1008.5
20260507105044 44 273 2.0 4.0 0.00 0.72 0.00 1 1008.5
20260507104945 44 227 2.0 4.0 0.00 0.72 0.00 1 1008.4
20260507104829 44 194 2.0 4.0 0.00 0.72 0.00 1 1008.4
20260507104755 44 194 2.0 4.0 0.00 0.72 0.00 1 1008.4
20260506214648 44 350 5.0 9.0 0.02 1.10 0.95 1 1007.8
20260506214548 44 336 5.0 9.0 0.02 1.10 0.95 1 1007.8
20260506214341 44 18 3.0 8.0 0.02 1.09 0.94 1 1007.8
20260506214233 44 360 4.0 8.0 0.02 1.09 0.94 1 1007.8
20260506214155 44 360 5.0 8.0 0.02 1.09 0.94 1 1007.8
20260506214038 44 350 5.0 8.0 0.02 1.09 0.94 1 1007.8
20260506213933 44 323 3.0 9.0 0.02 1.09 0.94 1 1007.8
20260506213827 44 355 3.0 9.0 0.02 1.09 0.94 1 1007.8
20260506213748 44 61 4.0 9.0 0.02 1.09 0.94 1 1007.8
20260506213709 44 327 5.0 9.0 0.03 1.09 0.94 1 1007.8
20260506213613 44 338 5.0 10.0 0.03 1.09 0.94 1 1007.8
20260506213516 44 328 5.0 10.0 0.03 1.09 0.94 1 1007.8
20260506213436 44 333 6.0 10.0 0.03 1.09 0.94 1 1007.8
20260506213305 44 331 5.0 11.0 0.03 1.09 0.94 1 1007.8
20260506213138 44 333 5.0 11.0 0.03 1.09 0.94 1 1007.8
20260506213022 44 338 5.0 11.0 0.03 1.09 0.94 1 1007.8
20260506212944 44 360 5.0 11.0 0.03 1.09 0.94 1 1007.8
20260506212905 44 325 6.0 11.0 0.03 1.09 0.94 1 1007.7
20260506212757 44 355 6.0 11.0 0.03 1.09 0.94 1 1007.7
20260506212638 44 355 5.0 11.0 0.04 1.09 0.94 1 1007.7
20260506212545 44 329 7.0 11.0 0.04 1.09 0.94 1 1007.7
20260506212425 44 360 8.0 11.0 0.04 1.09 0.94 1 1007.7
20260506212348 44 333 7.0 11.0 0.04 1.09 0.94 1 1007.7
20260506212251 44 342 6.0 11.0 0.04 1.09 0.94 1 1007.7
20260506212211 44 333 6.0 11.0 0.04 1.09 0.94 1 1007.7
20260506212041 44 348 6.0 10.0 0.04 1.09 0.94 1 1007.7
20260506211935 44 346 7.0 10.0 0.04 1.09 0.94 1 1007.7
20260506211835 44 355 5.0 10.0 0.05 1.09 0.94 1 1007.7
20260506211734 44 5 4.0 10.0 0.05 1.09 0.94 1 1007.6
20260506211616 44 343 5.0 10.0 0.05 1.09 0.94 1 1007.6
20260506211537 44 335 5.0 10.0 0.05 1.09 0.94 1 1007.6
20260506211323 44 342 7.0 11.0 0.05 1.09 0.94 1 1007.6
20260506211224 44 337 7.0 11.0 0.05 1.09 0.94 1 1007.5
20260506211128 44 344 6.0 11.0 0.05 1.09 0.94 1 1007.5
20260506211049 44 5 6.0 11.0 0.05 1.09 0.94 1 1007.5
20260506210830 44 321 5.0 11.0 0.05 1.09 0.94 1 1007.5
20260506210730 44 5 6.0 11.0 0.05 1.09 0.94 1 1007.5
20260506210634 44 345 7.0 11.0 0.05 1.09 0.94 1 1007.4
20260506210557 44 333 7.0 11.0 0.05 1.09 0.94 1 1007.4
20260506210519 44 333 8.0 11.0 0.05 1.09 0.94 1 1007.4
20260506210326 44 355 6.0 12.0 0.04 1.08 0.93 1 1007.4
20260506210227 44 344 5.0 12.0 0.04 1.08 0.93 1 1007.4
20260506210130 44 355 6.0 12.0 0.04 1.08 0.93 1 1007.4
20260506210051 44 345 6.0 12.0 0.04 1.08 0.93 1 1007.4
20260506205921 44 340 4.0 12.0 0.04 1.25 0.93 1 1007.4
20260506205837 44 348 5.0 12.0 0.04 1.25 0.93 1 1007.4
20260506205704 44 36 8.0 12.0 0.04 1.25 0.93 1 1007.5
20260506205625 44 335 8.0 12.0 0.04 1.25 0.93 1 1007.5
20260506205427 44 317 4.0 8.0 0.04 1.25 0.93 1 1007.5
20260506205349 44 19 3.0 8.0 0.04 1.25 0.93 1 1007.5
20260506205253 44 16 3.0 8.0 0.04 1.25 0.93 1 1007.6
20260506205217 44 355 3.0 9.0 0.04 1.25 0.93 1 1007.6
20260506205045 44 355 4.0 9.0 0.04 1.25 0.93 1 1007.6
20260506204946 44 347 4.0 9.0 0.04 1.25 0.93 1 1007.6
20260506204840 44 337 4.0 9.0 0.04 1.25 0.93 1 1007.7
20260506204802 44 344 4.0 9.0 0.04 1.25 0.93 1 1007.7
20260506204704 44 317 3.0 9.0 0.04 1.25 0.93 1 1007.7
20260506204624 44 329 4.0 9.0 0.04 1.25 0.93 1 1007.6
20260506204427 44 347 6.0 9.0 0.03 1.24 0.92 1 1007.6
20260506204327 44 350 5.0 9.0 0.03 1.24 0.92 1 1007.6
20260506204228 44 355 4.0 9.0 0.03 1.24 0.92 1 1007.6
20260506204135 44 332 6.0 9.0 0.03 1.24 0.92 1 1007.6
20260506204039 44 323 7.0 9.0 0.03 1.24 0.92 1 1007.6
20260506203923 44 319 4.0 9.0 0.03 1.24 0.92 1 1007.6
20260506203845 44 313 4.0 8.0 0.03 1.24 0.92 1 1007.6
20260506203805 44 327 4.0 8.0 0.02 1.23 0.91 1 1007.6
20260506203708 44 315 4.0 8.0 0.02 1.23 0.91 1 1007.6
20260506203629 44 304 3.0 8.0 0.03 1.23 0.91 1 1007.7
20260506203434 44 333 5.0 11.0 0.03 1.23 0.91 1 1007.7
20260506203339 44 329 5.0 11.0 0.03 1.23 0.91 1 1007.7
20260506203222 44 340 4.0 11.0 0.03 1.23 0.91 1 1007.7
20260506203145 44 327 4.0 11.0 0.03 1.23 0.91 1 1007.7
20260506203040 44 330 5.0 11.0 0.03 1.23 0.91 1 1007.6
20260506202924 44 360 6.0 12.0 0.03 1.23 0.91 1 1007.6
20260506202826 44 340 7.0 12.0 0.03 1.23 0.91 1 1007.6
20260506202749 44 309 7.0 12.0 0.03 1.23 0.91 1 1007.6
20260506202651 44 333 6.0 12.0 0.02 1.22 0.90 1 1007.6
20260506202612 44 340 6.0 12.0 0.02 1.22 0.90 1 1007.6
20260506202515 44 315 7.0 12.0 0.02 1.22 0.90 1 1007.6
20260506202420 44 313 8.0 12.0 0.02 1.22 0.90 1 1007.6
20260506202340 44 319 8.0 12.0 0.02 1.22 0.90 1 1007.6
20260506202208 44 343 7.0 12.0 0.02 1.22 0.90 1 1007.6
20260506202121 44 344 5.0 12.0 0.02 1.22 0.90 1 1007.6
20260506201931 44 329 5.0 12.0 0.02 1.22 0.90 1 1007.6
20260506201846 44 323 5.0 12.0 0.01 1.21 0.89 1 1007.6
20260506201715 44 336 6.0 12.0 0.01 1.21 0.89 1 1007.7
20260506201636 44 310 7.0 12.0 0.02 1.21 0.89 1 1007.6
20260506201438 44 323 6.0 12.0 0.02 1.21 0.89 1 1007.5
20260506201346 44 327 7.0 12.0 0.02 1.21 0.89 1 1007.5
20260506201227 44 320 7.0 12.0 0.02 1.21 0.89 1 1007.6
20260506201148 44 326 7.0 12.0 0.02 1.21 0.89 1 1007.5
20260506201031 44 311 8.0 12.0 0.02 1.21 0.89 1 1007.5
20260506200953 45 346 7.0 9.0 0.02 1.21 0.89 1 1007.5
20260506200915 45 344 7.0 9.0 0.03 1.21 0.89 1 1007.5
20260506200818 45 5 5.0 9.0 0.03 1.21 0.89 1 1007.5
20260506200739 45 351 5.0 9.0 0.03 1.21 0.89 1 1007.5
20260506200610 45 349 6.0 9.0 0.03 1.21 0.89 1 1007.5
20260506200526 45 342 5.0 9.0 0.03 1.21 0.89 1 1007.4
20260506200335 45 321 5.0 9.0 0.03 1.21 0.89 1 1007.5
20260506200253 45 310 6.0 9.0 0.03 1.21 0.89 1 1007.5
20260506200123 45 328 6.0 9.0 0.04 1.21 0.89 1 1007.4
20260506200044 45 317 6.0 9.0 0.04 1.21 0.89 1 1007.4
20260506195913 45 327 5.0 9.0 0.04 1.27 0.89 1 1007.4
20260506195828 45 319 6.0 9.0 0.04 1.27 0.89 1 1007.4
20260506195638 45 314 5.0 9.0 0.05 1.27 0.89 1 1007.3
20260506195532 45 308 6.0 9.0 0.05 1.27 0.89 1 1007.4
20260506195426 45 333 5.0 9.0 0.05 1.27 0.89 1 1007.3
20260506195346 45 338 5.0 9.0 0.05 1.27 0.89 1 1007.3
20260506195215 45 313 7.0 9.0 0.05 1.27 0.89 1 1007.3
20260506195134 45 321 7.0 9.0 0.05 1.27 0.89 1 1007.3
20260506194945 45 311 6.0 9.0 0.06 1.27 0.89 1 1007.3
20260506194859 45 321 6.0 9.0 0.06 1.27 0.89 1 1007.3
20260506194717 45 336 5.0 10.0 0.06 1.27 0.89 1 1007.2
20260506194617 45 349 4.0 10.0 0.06 1.27 0.89 1 1007.4
20260506194520 45 344 5.0 10.0 0.06 1.27 0.89 1 1007.4
20260506194442 45 316 6.0 10.0 0.06 1.27 0.89 1 1007.4
20260506194311 45 338 5.0 10.0 0.06 1.27 0.89 1 1007.3
20260506194212 45 325 5.0 10.0 0.06 1.27 0.89 1 1007.3
20260506194054 45 312 5.0 10.0 0.06 1.27 0.89 1 1007.3
20260506194015 45 344 7.0 10.0 0.06 1.27 0.89 1 1007.3
20260506193915 45 313 6.0 10.0 0.06 1.27 0.89 1 1007.3
20260506193821 45 322 5.0 10.0 0.06 1.27 0.89 1 1007.3
20260506193742 45 360 4.0 9.0 0.06 1.27 0.89 1 1007.3
20260506193611 45 315 4.0 9.0 0.06 1.26 0.88 1 1007.3
20260506193525 45 335 5.0 9.0 0.06 1.26 0.88 1 1007.4
20260506193335 45 337 6.0 9.0 0.06 1.26 0.88 1 1007.4
20260506193247 45 329 5.0 9.0 0.06 1.26 0.88 1 1007.4
20260506193116 45 298 5.0 9.0 0.06 1.26 0.88 1 1007.3
20260506193016 45 303 7.0 9.0 0.06 1.26 0.88 1 1007.4
20260506192838 45 321 7.0 9.0 0.06 1.26 0.88 1 1007.4
20260506192759 45 311 4.0 9.0 0.06 1.26 0.88 1 1007.3
20260506192523 45 317 4.0 8.0 0.06 1.26 0.88 1 1007.4
20260506192446 45 317 4.0 8.0 0.06 1.26 0.88 1 1007.4
20260506192348 45 312 5.0 8.0 0.06 1.26 0.88 1 1007.4
20260506192228 45 339 5.0 8.0 0.06 1.26 0.88 1 1007.3
20260506192130 45 317 4.0 8.0 0.06 1.26 0.88 1 1007.3
20260506192052 45 319 4.0 6.0 0.06 1.26 0.88 1 1007.3
20260506192013 45 313 3.0 5.0 0.07 1.26 0.88 1 1007.3
20260506191916 45 323 3.0 5.0 0.07 1.26 0.88 1 1007.3
20260506191837 45 326 3.0 5.0 0.07 1.26 0.88 1 1007.2
20260506191705 45 327 3.0 5.0 0.06 1.25 0.87 1 1007.2
20260506191618 45 334 3.0 5.0 0.06 1.25 0.87 1 1007.2
20260506191451 45 349 2.0 5.0 0.06 1.25 0.87 1 1007.2
20260506191351 45 332 2.0 5.0 0.06 1.25 0.87 1 1007.2
20260506191133 44 341 2.0 5.0 0.06 1.25 0.87 1 1007.3
20260506191056 44 37 2.0 5.0 0.06 1.25 0.87 1 1007.3
20260506190939 44 355 2.0 5.0 0.05 1.24 0.86 1 1007.2
20260506190901 44 355 3.0 5.0 0.05 1.24 0.86 1 1007.2
20260506190816 44 355 3.0 5.0 0.05 1.24 0.86 1 1007.3
20260506190625 44 348 4.0 5.0 0.05 1.24 0.86 1 1007.2
20260506190549 44 343 4.0 5.0 0.05 1.24 0.86 1 1007.2
20260506190447 44 333 4.0 5.0 0.05 1.24 0.86 1 1007.3
20260506190408 44 347 3.0 5.0 0.05 1.24 0.86 1 1007.3
20260506190313 44 326 2.0 4.0 0.04 1.23 0.85 1 1007.3
20260506190233 44 346 2.0 4.0 0.04 1.23 0.85 1 1007.3
20260506185936 44 350 2.0 5.0 0.04 1.24 0.85 1 1007.3
20260506185830 44 350 3.0 5.0 0.04 1.24 0.85 1 1007.2
20260506185750 44 11 2.0 5.0 0.04 1.24 0.85 1 1007.2
20260506185620 44 16 2.0 5.0 0.03 1.23 0.84 1 1007.3
20260506185534 44 13 3.0 5.0 0.03 1.23 0.84 1 1007.5
20260506185348 44 348 3.0 5.0 0.03 1.23 0.84 1 1007.5
20260506185241 44 342 3.0 5.0 0.03 1.23 0.84 1 1007.5
20260506185115 44 5 3.0 5.0 0.02 1.22 0.83 1 1007.5
20260506185047 44 11 2.0 8.0 0.02 1.22 0.83 1 1007.5
20260506185009 44 360 2.0 8.0 0.02 1.22 0.83 1 1007.6
20260506184822 44 331 3.0 8.0 0.02 1.22 0.83 1 1007.6
20260506184743 44 331 4.0 8.0 0.02 1.22 0.83 1 1007.6
20260506184626 44 314 4.0 10.0 0.02 1.22 0.83 1 1007.5
20260506184549 44 327 3.0 10.0 0.02 1.22 0.83 1 1007.5
20260506184514 44 334 4.0 10.0 0.03 1.22 0.83 1 1007.5
20260506184336 44 321 4.0 10.0 0.03 1.22 0.83 1 1007.5
20260506184247 44 347 4.0 10.0 0.03 1.22 0.83 1 1007.5
20260506184129 44 355 5.0 10.0 0.03 1.22 0.83 1 1007.5
20260506184051 44 334 5.0 10.0 0.03 1.22 0.83 1 1007.5
20260506184012 44 336 6.0 10.0 0.03 1.22 0.83 1 1007.5
20260506183814 44 360 6.0 10.0 0.03 1.22 0.83 1 1007.5
20260506183740 44 333 6.0 10.0 0.02 1.21 0.82 1 1007.5
20260506183528 44 344 4.0 9.0 0.03 1.21 0.82 1 1007.6
20260506183427 44 321 4.0 9.0 0.03 1.21 0.82 1 1007.6
20260506183349 44 327 3.0 8.0 0.03 1.21 0.82 1 1007.6
20260506183223 44 347 5.0 8.0 0.03 1.21 0.82 1 1007.6
20260506183140 44 313 5.0 8.0 0.03 1.21 0.82 1 1007.6
20260506183040 44 334 4.0 8.0 0.03 1.21 0.82 1 1007.6
20260506182935 44 337 4.0 8.0 0.03 1.21 0.82 1 1007.6
20260506182858 44 344 4.0 9.0 0.03 1.21 0.82 1 1007.6
20260506182823 44 334 4.0 9.0 0.04 1.21 0.82 1 1007.7
20260506182655 44 337 5.0 10.0 0.04 1.21 0.82 1 1007.6
20260506182556 44 338 5.0 10.0 0.04 1.21 0.82 1 1007.6
20260506182517 44 321 5.0 10.0 0.04 1.21 0.82 1 1007.6
20260506182421 44 326 4.0 10.0 0.05 1.21 0.82 1 1007.7
20260506182342 44 355 4.0 10.0 0.05 1.21 0.82 1 1007.7
20260506182212 44 314 6.0 10.0 0.05 1.21 0.82 1 1007.8
20260506182127 44 319 6.0 10.0 0.04 1.20 0.81 1 1007.7
20260506181956 44 343 7.0 10.0 0.04 1.20 0.81 1 1007.7
20260506181857 44 323 6.0 10.0 0.04 1.20 0.81 1 1007.7
20260506181759 44 343 5.0 10.0 0.05 1.20 0.81 1 1007.6
20260506181720 44 342 4.0 10.0 0.05 1.20 0.81 1 1007.6
20260506181523 44 18 6.0 11.0 0.05 1.20 0.81 1 1007.6
20260506181447 44 342 6.0 11.0 0.05 1.20 0.81 1 1007.6
20260506181318 44 360 6.0 11.0 0.05 1.20 0.81 1 1007.7
20260506181238 44 342 7.0 11.0 0.05 1.20 0.81 1 1007.8
20260506181039 44 335 5.0 11.0 0.06 1.20 0.81 1 1007.8
20260506181001 44 317 6.0 11.0 0.06 1.20 0.81 1 1007.8
20260506180843 44 327 7.0 11.0 0.06 1.20 0.81 1 1007.9
20260506180744 44 330 7.0 11.0 0.06 1.20 0.81 1 1007.9
20260506180640 44 324 8.0 11.0 0.06 1.20 0.81 1 1007.8
20260506180524 44 342 9.0 11.0 0.06 1.20 0.81 1 1007.8
20260506180450 44 321 9.0 11.0 0.06 1.20 0.81 1 1007.8
20260506180411 44 311 8.0 11.0 0.06 1.20 0.81 1 1007.9
20260506180232 44 323 6.0 10.0 0.06 1.20 0.81 1 1007.9
20260506180152 44 336 5.0 10.0 0.06 1.20 0.81 1 1008.0
20260506175933 44 341 6.0 10.0 0.06 1.20 0.81 1 1008.0
20260506175854 44 342 6.0 10.0 0.06 1.20 0.81 1 1008.0
20260506175757 44 327 5.0 10.0 0.07 1.20 0.81 1 1007.9
20260506175637 44 333 5.0 10.0 0.07 1.20 0.81 1 1007.9
20260506175541 44 32 6.0 10.0 0.07 1.20 0.81 1 1007.9
20260506175447 44 343 6.0 10.0 0.07 1.20 0.81 1 1007.9
20260506175409 44 335 6.0 10.0 0.07 1.20 0.81 1 1007.9
20260506175313 44 5 6.0 10.0 0.07 1.20 0.81 1 1007.9
20260506175233 44 355 5.0 10.0 0.07 1.20 0.81 1 1008.0
20260506175037 44 351 4.0 9.0 0.07 1.20 0.81 1 1008.2
20260506174938 44 348 4.0 9.0 0.07 1.20 0.81 1 1008.2
20260506174840 44 338 5.0 10.0 0.07 1.20 0.81 1 1008.2
20260506174742 44 347 6.0 10.0 0.07 1.20 0.81 1 1008.2
20260506174656 44 327 5.0 10.0 0.07 1.20 0.81 1 1008.2
20260506174504 44 321 5.0 10.0 0.06 1.19 0.80 1 1008.2
20260506174428 44 315 4.0 10.0 0.06 1.19 0.80 1 1008.2
20260506174310 44 330 4.0 10.0 0.06 1.19 0.80 1 1008.3
20260506174231 44 324 6.0 10.0 0.06 1.19 0.80 1 1008.3
20260506174042 44 319 5.0 10.0 0.06 1.19 0.80 1 1008.2
20260506173935 44 336 4.0 10.0 0.07 1.19 0.80 1 1008.1
20260506173857 44 321 4.0 10.0 0.07 1.19 0.80 1 1008.1
20260506173748 44 343 5.0 10.0 0.07 1.19 0.80 1 1008.1
20260506173536 44 339 6.0 10.0 0.06 1.18 0.79 1 1008.2
20260506173431 44 346 6.0 10.0 0.06 1.18 0.79 1 1008.2
20260506173357 43 340 5.0 10.0 0.06 1.18 0.79 1 1008.2
20260506173300 43 332 5.0 9.0 0.06 1.18 0.79 1 1008.2
20260506173221 43 319 5.0 9.0 0.06 1.18 0.79 1 1008.2
20260506173049 43 320 4.0 9.0 0.07 1.18 0.79 1 1008.2
20260506172943 43 324 4.0 10.0 0.07 1.18 0.79 1 1008.2
20260506172844 43 311 5.0 10.0 0.06 1.17 0.78 1 1008.3
20260506172726 43 324 4.0 10.0 0.06 1.17 0.78 1 1008.2
20260506172648 43 332 4.0 10.0 0.06 1.17 0.78 1 1008.2
20260506172523 43 323 5.0 10.0 0.06 1.17 0.78 1 1008.2
20260506172430 43 338 6.0 10.0 0.06 1.16 0.77 1 1008.2
20260506172352 43 328 6.0 10.0 0.06 1.16 0.77 1 1008.2